Content
SEND FEEDBACK

Daily
Averages
Monthly
Summary
Switzerland

GENEVA, SWITZERLAND


Home > Europe > Switzerland
Elevation: 1364 feet     Latitude: 46 15N     Longitude: 006 08E

WEATHER
 
SELECT A DAY
Number of Records: 311,664;   Date Range: 7/1/96 - 9/29/14
 
SHARE

PRINT THIS DATA

[ ← Previous Day ]
WEATHER ALMANAC - DECEMBER 8, 2013
[ Next Day → ]
[ °C ]   °F
Weather ElementAverageHighLow
Temperature29.3 °F41 °F (1:20 pm)21.2 °F (7:20 am)
Dewpoint25.7 °F32 °F (1:20 pm)19 °F (5:00 am)
Humidity85.6 %100 % (12:20 am)53 % (3:00 pm)
Barometer30.44 in30.56 in (11:00 pm)30.36 in (12:20 am)
Wind Speed0.7 mph4.6 mph (2:00 pm)
Weather ElementAverage
Visibility10.1 mi
Wind DirectionNE (49.7 °)

Weather ElementTotal
Precipitation---
Heating Degree Days33.9 (Base 65)
Averaged from 66 records on December 8, 2013
WEATHER CONDITIONS BREAKOUT
WIND DIRECTION BREAKOUT
WEATHER BY HOUR - DECEMBER 8, 2013
[ °C ]   °F
Local TimeTemperatureDewpointHumidityBarometerVisibilityWind DirectionWind SpeedGust SpeedPrecipitationEventsConditions
12:20 AM24.8 °F24.8 °F100 %30.36 inCalmClear
12:50 AM24.8 °F24.8 °F100 %30.36 inCalmClear
1:00 AM24.0 °F21.0 °F81 %30.48 in25.0 miWest (270°)1.2 mph
1:20 AM24.8 °F24.8 °F100 %30.36 inCalmClear
1:50 AM24.8 °F23.0 °F93 %30.39 inCalmClear
2:00 AM26.0 °F22.0 °F80 %30.48 inWNW (290°)2.3 mph
2:50 AM24.8 °F23.0 °F93 %30.39 inCalmClear
3:00 AM24.0 °F22.0 °F87 %30.49 inNNE (30°)1.2 mph
3:20 AM24.8 °F23.0 °F93 %30.39 inCalmClear
3:50 AM23.0 °F21.2 °F93 %30.39 inCalmClear
4:20 AM23.0 °F21.2 °F93 %30.39 inCalmClear
4:50 AM23.0 °F21.2 °F93 %30.39 inCalmClear
5:00 AM23.0 °F19.0 °F77 %30.49 inCalm
5:20 AM23.0 °F21.2 °F93 %30.39 inCalmClear
5:50 AM23.0 °F21.2 °F93 %30.39 inCalmClear
6:00 AM24.0 °F21.0 °F84 %30.49 inWSW (250°)1.2 mph
6:20 AM23.0 °F23.0 °F100 %30.39 inCalmClear
6:50 AM23.0 °F21.2 °F93 %30.39 inCalmClear
7:00 AM22.0 °F19.0 °F85 %30.50 in25.0 miWest (270°)1.2 mph
7:20 AM21.2 °F21.2 °F100 %30.39 inCalmClear
7:50 AM21.2 °F21.2 °F100 %30.39 inCalmClear
8:00 AM23.0 °F21.0 °F88 %30.51 inNW (310°)1.2 mph
8:20 AM23.0 °F23.0 °F100 %30.39 in5.0 miCalmPartly Cloudy
8:50 AM23.0 °F21.2 °F93 %30.42 inCalmClear
9:00 AM24.0 °F22.0 °F87 %30.51 inWSW (250°)1.2 mph
9:20 AM24.8 °F24.8 °F100 %30.42 inCalmClear
9:50 AM28.4 °F26.6 °F93 %30.42 inCalmClear
10:20 AM30.2 °F28.4 °F93 %30.42 inCalmClear
10:50 AM35.6 °F30.2 °F81 %30.42 inCalmClear
11:00 AM34.0 °F28.0 °F69 %30.50 inNNE (30°)1.2 mph
11:20 AM35.6 °F30.2 °F81 %30.42 inCalmClear
11:50 AM37.4 °F28.4 °F70 %30.42 inCalmClear
12:00 PM37.0 °F29.0 °F64 %30.49 inNE (50°)3.5 mph
12:20 PM39.2 °F30.2 °F70 %30.42 inVariable1.2 mphClear
12:50 PM39.2 °F30.2 °F70 %30.42 inCalmClear
1:00 PM38.0 °F29.0 °F61 %30.47 in16.0 miEast (90°)2.3 mphClear
1:20 PM41.0 °F32.0 °F70 %30.42 inVariable1.2 mphClear
1:50 PM41.0 °F30.2 °F65 %30.39 inVariable3.5 mphClear
2:00 PM39.0 °F29.0 °F56 %30.46 inENE (60°)4.6 mph
2:20 PM41.0 °F30.2 °F65 %30.39 inVariable1.2 mphClear
2:50 PM41.0 °F30.2 °F65 %30.39 inCalmClear
3:00 PM40.0 °F29.0 °F53 %30.45 inEast (80°)2.3 mph
3:20 PM39.2 °F30.2 °F70 %30.39 inVariable1.2 mphClear
3:50 PM39.2 °F30.2 °F70 %30.39 inCalmClear
4:20 PM39.2 °F30.2 °F70 %30.42 inEast (90°)1.2 mphClear
4:50 PM35.6 °F30.2 °F81 %30.42 inCalmClear
5:00 PM34.0 °F29.0 °F76 %30.48 inENE (60°)2.3 mph
5:20 PM33.8 °F30.2 °F87 %30.42 inCalmClear
5:50 PM32.0 °F28.4 °F87 %30.42 inCalmClear
6:00 PM31.0 °F29.0 °F88 %30.50 inWNW (300°)1.2 mph
6:20 PM32.0 °F30.2 °F93 %30.42 in5.6 miCalm
6:50 PM30.2 °F28.4 °F93 %30.42 in5.0 miCalm
7:00 PM29.0 °F27.0 °F88 %30.53 in7.0 miNorth (10°)1.2 mphMist
7:20 PM28.4 °F26.6 °F93 %30.45 in5.0 miCalm
7:50 PM28.4 °F26.6 °F93 %30.45 in4.3 miCalm
8:00 PM29.0 °F26.0 °F85 %30.54 inWest (270°)1.2 mph
8:20 PM28.4 °F26.6 °F93 %30.45 in3.1 miCalmMist
8:50 PM26.6 °F26.6 °F100 %30.45 inCalmClear
9:00 PM28.0 °F26.0 °F89 %30.55 inSW (230°)2.3 mph
9:20 PM26.6 °F26.6 °F100 %30.45 inCalmClear
9:50 PM26.6 °F26.6 °F100 %30.45 inCalmClear
10:20 PM26.6 °F24.8 °F93 %30.45 inCalmClear
10:50 PM24.8 °F23.0 °F93 %30.45 inCalmClear
11:00 PM26.0 °F24.0 °F88 %30.56 inWNW (290°)2.3 mph
11:20 PM26.6 °F24.8 °F93 %30.45 inCalmClear
11:50 PM24.8 °F24.8 °F100 %30.48 inCalmClear
Hourly data recorded from LSGG, located miles away from Geneva, Switzerland







STORIES FROM OUR PARTNERS